C/2020 N1 ( PanSTARRS )

Japanese version
Home page
Updated on October 9, 2020

---------------------------------------------------------------------

* Profile

Discovery Date July 3, 2020
Magnitude 20.7 mag
Discoverer Pan-STARRS 1 telescope (Haleakala)

* Pictures

* Orbital Elements

Epoch 2021 Mar. 7.0 TT = JDT 2459280.5
T 2021 Mar. 12.22894 TT                                 Rudenko
q   1.3206887            (2000.0)            P               Q
z  -0.0003801      Peri.  186.77178     -0.27300372     -0.82904408
 +/-0.0000149      Node   279.98222     +0.90424167     -0.04799598
e   1.0005021      Incl.   29.70355     +0.32835343     -0.55711964
From 136 observations 2020 July 1-Sept. 21, mean residual 0".5.

* Finding Charts

* Magnitudes Graph

        m1 = 12.0 + 5 log d + 10.0 log r

---------------------------------------------------------------------

The orbital elements are published on M.P.E.C. 2020-S188.
The charts are made with StellaNavigator Ver.10 (AstroArts).
The magnitudes graphs are made with Comet for Windows.

---------------------------------------------------------------------

Copyright(C) Seiichi Yoshida (comet@aerith.net). All rights reserved.